DLH523 EGKK-EDDF

Flight info

Callsign DLH523
Flight time 1h 10m
Altitude 35000
Route DVR UL9 KONAN UL607 KOK DCT REMBA UL607 SPI T180 NIVNU/N0405F230 T847 IMCOM IMCOM1B
Aircraft A320/M-SDE3FGHIRWY/LB1

Departure

Time 2026-05-06 18:44
Airport London Gatwick Airport (EGKK)

Arrival

Time 2026-05-06 19:54
Airport Frankfurt Main Airport (EDDF)
Time Latitude Longitude Altitude Speed Heading
2026-05-06 18:14 51.15566 -0.16993 211 ft 0 kts 166°
2026-05-06 18:29 51.15571 -0.16995 203 ft 2 kts 166°
2026-05-06 18:30 51.15590 -0.17002 212 ft 3 kts 171°
2026-05-06 18:30 51.15609 -0.17006 212 ft 3 kts 177°
2026-05-06 18:30 51.15629 -0.17005 213 ft 3 kts 192°
2026-05-06 18:30 51.15647 -0.16996 207 ft 3 kts 227°
2026-05-06 18:31 51.15653 -0.16981 210 ft 1 kts 257°
2026-05-06 18:31 51.15654 -0.16975 208 ft 0 kts 257°
2026-05-06 18:34 51.15653 -0.16977 209 ft 2 kts 257°
2026-05-06 18:34 51.15642 -0.17056 206 ft 9 kts 257°
2026-05-06 18:34 51.15627 -0.17158 208 ft 10 kts 256°
2026-05-06 18:35 51.15611 -0.17265 210 ft 10 kts 256°
2026-05-06 18:35 51.15584 -0.17403 213 ft 15 kts 237°
2026-05-06 18:35 51.15537 -0.17533 207 ft 13 kts 256°
2026-05-06 18:35 51.15519 -0.17661 208 ft 12 kts 258°
2026-05-06 18:36 51.15492 -0.17863 205 ft 24 kts 259°
2026-05-06 18:36 51.15460 -0.18097 213 ft 12 kts 248°
2026-05-06 18:36 51.15394 -0.18147 205 ft 11 kts 172°
2026-05-06 18:36 51.15302 -0.18114 212 ft 15 kts 167°
2026-05-06 18:37 51.15209 -0.18130 212 ft 13 kts 234°
2026-05-06 18:37 51.15191 -0.18229 208 ft 16 kts 258°
2026-05-06 18:37 51.15153 -0.18559 209 ft 27 kts 259°
2026-05-06 18:37 51.15112 -0.18860 214 ft 28 kts 259°
2026-05-06 18:38 51.15070 -0.19174 210 ft 29 kts 258°
2026-05-06 18:38 51.15028 -0.19494 216 ft 30 kts 258°
2026-05-06 18:38 51.14984 -0.19828 208 ft 31 kts 256°
2026-05-06 18:38 51.14934 -0.20164 206 ft 29 kts 258°
2026-05-06 18:39 51.14894 -0.20465 207 ft 23 kts 258°
2026-05-06 18:39 51.14860 -0.20710 202 ft 22 kts 257°
2026-05-06 18:39 51.14826 -0.20951 212 ft 22 kts 257°
2026-05-06 18:40 51.14762 -0.21354 202 ft 16 kts 252°
2026-05-06 18:40 51.14676 -0.21376 208 ft 14 kts 144°
2026-05-06 18:40 51.14615 -0.21324 203 ft 0 kts 165°
2026-05-06 18:42 51.14591 -0.21314 213 ft 10 kts 165°
2026-05-06 18:43 51.14533 -0.21249 212 ft 12 kts 127°
2026-05-06 18:43 51.14523 -0.21110 205 ft 14 kts 81°
2026-05-06 18:43 51.14533 -0.21030 206 ft 3 kts 78°
2026-05-06 18:43 51.14579 -0.20700 207 ft 66 kts 77°
2026-05-06 18:44 51.14729 -0.19640 216 ft 126 kts 78°
2026-05-06 18:44 51.14954 -0.18051 301 ft 162 kts 76°
2026-05-06 18:44 51.15220 -0.16256 852 ft 170 kts 75°
2026-05-06 18:44 51.15514 -0.14408 1496 ft 177 kts 71°
2026-05-06 18:45 51.15839 -0.12462 2121 ft 184 kts 72°
2026-05-06 18:45 51.16213 -0.10482 2763 ft 189 kts 69°
2026-05-06 18:45 51.16533 -0.08399 3361 ft 196 kts 78°
2026-05-06 18:45 51.16771 -0.06240 3902 ft 203 kts 77°
2026-05-06 18:46 51.17003 -0.03895 4148 ft 229 kts 84°
2026-05-06 18:46 51.16925 -0.01243 4527 ft 254 kts 92°
2026-05-06 18:46 51.16825 0.01674 5114 ft 267 kts 92°
2026-05-06 18:46 51.16749 0.04660 5958 ft 272 kts 92°
2026-05-06 18:47 51.16683 0.07672 6819 ft 275 kts 91°
2026-05-06 18:47 51.16622 0.10742 7635 ft 279 kts 91°
2026-05-06 18:47 51.16564 0.13880 8410 ft 285 kts 90°
2026-05-06 18:47 51.16519 0.17040 9174 ft 290 kts 90°
2026-05-06 18:48 51.16514 0.20284 9989 ft 294 kts 88°
2026-05-06 18:48 51.16529 0.23565 10720 ft 298 kts 88°
2026-05-06 18:48 51.16550 0.26890 11443 ft 302 kts 88°
2026-05-06 18:48 51.16568 0.30262 12179 ft 306 kts 88°
2026-05-06 18:49 51.16583 0.33636 12919 ft 309 kts 88°
2026-05-06 18:49 51.16593 0.37070 13644 ft 313 kts 89°
2026-05-06 18:49 51.16595 0.40586 14304 ft 317 kts 89°
2026-05-06 18:49 51.16596 0.44087 14947 ft 320 kts 89°
2026-05-06 18:50 51.16591 0.47644 15590 ft 323 kts 90°
2026-05-06 18:50 51.16555 0.51263 16221 ft 327 kts 91°
2026-05-06 18:50 51.16494 0.54923 16867 ft 330 kts 91°
2026-05-06 18:50 51.16426 0.58522 17488 ft 333 kts 91°
2026-05-06 18:51 51.16353 0.62193 18086 ft 336 kts 91°
2026-05-06 18:51 51.16279 0.65948 18652 ft 339 kts 91°
2026-05-06 18:51 51.16208 0.69727 19196 ft 342 kts 91°
2026-05-06 18:51 51.16136 0.73493 19732 ft 345 kts 91°
2026-05-06 18:52 51.16063 0.77333 20270 ft 348 kts 91°
2026-05-06 18:52 51.15988 0.81194 20804 ft 350 kts 91°
2026-05-06 18:52 51.15815 0.90000 21989 ft 356 kts 91°
2026-05-06 18:53 51.15763 0.92642 22339 ft 358 kts 92°
2026-05-06 18:53 51.15682 0.96618 22860 ft 361 kts 92°
2026-05-06 18:53 51.15597 1.00663 23386 ft 364 kts 92°
2026-05-06 18:53 51.15511 1.04711 23843 ft 367 kts 92°
2026-05-06 18:54 51.15423 1.08796 24278 ft 369 kts 92°
2026-05-06 18:54 51.15332 1.12986 24718 ft 371 kts 92°
2026-05-06 18:54 51.15243 1.16968 25130 ft 373 kts 92°
2026-05-06 18:54 51.15148 1.21132 25554 ft 376 kts 92°
2026-05-06 18:55 51.15053 1.25264 25967 ft 378 kts 92°
2026-05-06 18:55 51.14956 1.29463 26389 ft 380 kts 92°
2026-05-06 18:55 51.14857 1.33685 26795 ft 382 kts 92°
2026-05-06 18:55 51.14754 1.37939 27197 ft 384 kts 92°
2026-05-06 18:56 51.14649 1.42203 27587 ft 387 kts 92°
2026-05-06 18:56 51.14543 1.46477 27972 ft 389 kts 92°
2026-05-06 18:56 51.14433 1.50823 28370 ft 392 kts 92°
2026-05-06 18:56 51.14323 1.55126 28762 ft 394 kts 92°
2026-05-06 18:57 51.14209 1.59526 28967 ft 401 kts 92°
2026-05-06 18:57 51.14090 1.64020 28991 ft 412 kts 92°
2026-05-06 18:57 51.13965 1.68654 28989 ft 423 kts 92°
2026-05-06 18:58 51.13698 1.78261 28989 ft 443 kts 92°
2026-05-06 18:58 51.13423 1.88211 28979 ft 461 kts 92°
2026-05-06 18:59 51.13119 1.98597 28976 ft 473 kts 93°
2026-05-06 18:59 51.12943 2.03759 28975 ft 458 kts 94°
2026-05-06 18:59 51.12714 2.08710 28975 ft 453 kts 95°
2026-05-06 19:00 51.12138 2.18671 28974 ft 451 kts 96°
2026-05-06 19:00 51.11547 2.28586 28978 ft 451 kts 96°
2026-05-06 19:01 51.10984 2.38482 28977 ft 451 kts 96°
2026-05-06 19:01 51.10431 2.48407 28965 ft 451 kts 96°
2026-05-06 19:02 51.09870 2.58351 28965 ft 451 kts 96°
2026-05-06 19:02 51.08948 2.68145 28956 ft 449 kts 107°
2026-05-06 19:03 51.07243 2.77737 29348 ft 452 kts 106°
2026-05-06 19:03 51.06410 2.82529 29652 ft 454 kts 106°
2026-05-06 19:03 51.05574 2.87369 29964 ft 456 kts 106°
2026-05-06 19:04 51.03764 2.97855 30481 ft 460 kts 106°
2026-05-06 19:04 51.02915 3.02715 30733 ft 461 kts 106°
2026-05-06 19:04 51.02050 3.07626 30954 ft 462 kts 107°
2026-05-06 19:04 51.01177 3.12563 31167 ft 465 kts 106°
2026-05-06 19:05 51.00298 3.17525 31388 ft 466 kts 106°
2026-05-06 19:05 50.99429 3.22426 31611 ft 467 kts 106°
2026-05-06 19:05 50.98543 3.27400 31870 ft 467 kts 106°
2026-05-06 19:05 50.97655 3.32364 32187 ft 466 kts 106°
2026-05-06 19:06 50.96768 3.37314 32560 ft 464 kts 106°
2026-05-06 19:06 50.95896 3.42172 32852 ft 464 kts 106°
2026-05-06 19:06 50.95010 3.47100 33148 ft 463 kts 106°
2026-05-06 19:06 50.94122 3.52014 33485 ft 462 kts 106°
2026-05-06 19:07 50.93231 3.56930 33760 ft 462 kts 106°
2026-05-06 19:07 50.92645 3.60162 33944 ft 462 kts 106°
2026-05-06 19:07 50.91463 3.66669 34264 ft 461 kts 106°
2026-05-06 19:07 50.90575 3.71559 34499 ft 462 kts 107°
2026-05-06 19:08 50.89683 3.76460 34718 ft 462 kts 107°
2026-05-06 19:08 50.88786 3.81362 34889 ft 462 kts 107°
2026-05-06 19:08 50.87896 3.86213 34941 ft 462 kts 107°
2026-05-06 19:09 50.86082 3.96000 34927 ft 462 kts 107°
2026-05-06 19:09 50.84270 4.05712 34947 ft 462 kts 107°
2026-05-06 19:10 50.82451 4.15489 34946 ft 462 kts 107°
2026-05-06 19:10 50.80643 4.25176 34936 ft 462 kts 107°
2026-05-06 19:11 50.78805 4.34940 34935 ft 461 kts 107°
2026-05-06 19:11 50.76969 4.44604 34933 ft 461 kts 107°
2026-05-06 19:12 50.75110 4.54324 34930 ft 461 kts 107°
2026-05-06 19:12 50.73254 4.64033 34931 ft 461 kts 107°
2026-05-06 19:13 50.71407 4.73687 34925 ft 461 kts 108°
2026-05-06 19:13 50.69526 4.83423 34918 ft 462 kts 108°
2026-05-06 19:14 50.67644 4.93055 34922 ft 462 kts 108°
2026-05-06 19:14 50.65747 5.02752 34919 ft 462 kts 108°
2026-05-06 19:15 50.63856 5.12380 34920 ft 462 kts 108°
2026-05-06 19:15 50.61944 5.22070 34914 ft 462 kts 108°
2026-05-06 19:16 50.60044 5.31685 34915 ft 461 kts 108°
2026-05-06 19:16 50.58122 5.41339 34913 ft 461 kts 109°
2026-05-06 19:17 50.56215 5.50989 34885 ft 461 kts 108°
2026-05-06 19:17 50.55281 5.55766 34347 ft 459 kts 108°
2026-05-06 19:17 50.54339 5.60576 33634 ft 459 kts 108°
2026-05-06 19:17 50.53405 5.65326 32866 ft 458 kts 108°
2026-05-06 19:18 50.52461 5.70103 32058 ft 457 kts 108°
2026-05-06 19:18 50.51512 5.74898 31233 ft 458 kts 108°
2026-05-06 19:18 50.50557 5.79710 30399 ft 458 kts 108°
2026-05-06 19:18 50.49614 5.84443 29696 ft 455 kts 108°
2026-05-06 19:19 50.48673 5.89167 29028 ft 449 kts 108°
2026-05-06 19:19 50.47750 5.93786 28327 ft 444 kts 108°
2026-05-06 19:19 50.46828 5.98382 27628 ft 440 kts 109°
2026-05-06 19:19 50.45901 6.02978 26970 ft 437 kts 109°
2026-05-06 19:20 50.44987 6.07493 26296 ft 434 kts 109°
2026-05-06 19:20 50.44081 6.11964 25607 ft 432 kts 108°
2026-05-06 19:20 50.43465 6.14997 25199 ft 430 kts 109°
2026-05-06 19:20 50.42563 6.19432 24935 ft 430 kts 109°
2026-05-06 19:21 50.41653 6.23899 24879 ft 430 kts 109°
2026-05-06 19:21 50.40736 6.28389 24895 ft 432 kts 109°
2026-05-06 19:21 50.39818 6.32880 24873 ft 432 kts 109°
2026-05-06 19:21 50.38907 6.37328 24876 ft 432 kts 109°
2026-05-06 19:22 50.37983 6.41833 24878 ft 432 kts 109°
2026-05-06 19:22 50.37061 6.46323 24879 ft 432 kts 109°
2026-05-06 19:22 50.36137 6.50811 24879 ft 433 kts 109°
2026-05-06 19:22 50.35220 6.55244 24875 ft 433 kts 109°
2026-05-06 19:23 50.34288 6.59739 24878 ft 433 kts 109°
2026-05-06 19:23 50.33360 6.64206 24454 ft 425 kts 109°
2026-05-06 19:23 50.32447 6.68597 23395 ft 421 kts 109°
2026-05-06 19:23 50.31552 6.72891 22207 ft 417 kts 109°
2026-05-06 19:24 50.30651 6.77197 21107 ft 413 kts 109°
2026-05-06 19:24 50.29762 6.81440 20095 ft 408 kts 109°
2026-05-06 19:24 50.28879 6.85646 19123 ft 402 kts 109°
2026-05-06 19:24 50.28022 6.89731 18202 ft 398 kts 109°
2026-05-06 19:25 50.27160 6.93841 17146 ft 393 kts 109°
2026-05-06 19:25 50.26309 6.97886 16171 ft 389 kts 109°
2026-05-06 19:25 50.25479 7.01820 15271 ft 384 kts 109°
2026-05-06 19:25 50.24640 7.05773 14380 ft 379 kts 109°
2026-05-06 19:26 50.23813 7.09656 13515 ft 374 kts 109°
2026-05-06 19:26 50.22994 7.13496 12545 ft 370 kts 108°
2026-05-06 19:26 50.22189 7.17267 11605 ft 365 kts 108°
2026-05-06 19:26 50.21388 7.21011 11077 ft 363 kts 107°
2026-05-06 19:27 50.20585 7.24762 10897 ft 363 kts 107°
2026-05-06 19:27 50.19785 7.28493 10857 ft 363 kts 107°
2026-05-06 19:27 50.18981 7.32239 10851 ft 365 kts 108°
2026-05-06 19:27 50.18171 7.36007 10858 ft 364 kts 109°
2026-05-06 19:28 50.17359 7.39771 10866 ft 364 kts 109°
2026-05-06 19:28 50.16561 7.43471 10871 ft 365 kts 109°
2026-05-06 19:28 50.15750 7.47226 10859 ft 365 kts 109°
2026-05-06 19:28 50.14934 7.50984 10856 ft 365 kts 110°
2026-05-06 19:29 50.14125 7.54696 10854 ft 364 kts 109°
2026-05-06 19:29 50.13304 7.58456 10866 ft 364 kts 109°
2026-05-06 19:29 50.12497 7.62150 10861 ft 365 kts 109°
2026-05-06 19:29 50.11679 7.65900 10844 ft 364 kts 110°
2026-05-06 19:30 50.10653 7.69491 10868 ft 362 kts 123°
2026-05-06 19:30 50.09236 7.72740 10859 ft 362 kts 126°
2026-05-06 19:30 50.07801 7.75963 10839 ft 357 kts 126°
2026-05-06 19:30 50.06426 7.79039 10860 ft 340 kts 127°
2026-05-06 19:31 50.05113 7.81980 10865 ft 324 kts 127°
2026-05-06 19:31 50.03841 7.84829 10862 ft 315 kts 127°
2026-05-06 19:31 50.01358 7.90366 10861 ft 313 kts 127°
2026-05-06 19:32 50.00111 7.93149 10859 ft 313 kts 127°
2026-05-06 19:32 49.98901 7.95996 10860 ft 313 kts 123°
2026-05-06 19:32 49.97797 7.98912 10861 ft 314 kts 121°
2026-05-06 19:32 49.96743 8.01856 10858 ft 314 kts 120°
2026-05-06 19:33 49.95697 8.04839 10859 ft 314 kts 120°
2026-05-06 19:33 49.94662 8.07795 10858 ft 314 kts 120°
2026-05-06 19:33 49.93605 8.10788 10856 ft 314 kts 121°
2026-05-06 19:33 49.92545 8.13761 10861 ft 314 kts 121°
2026-05-06 19:34 49.91474 8.16737 10855 ft 314 kts 121°
2026-05-06 19:34 49.90418 8.19647 10832 ft 314 kts 121°
2026-05-06 19:34 49.89341 8.22608 10851 ft 313 kts 121°
2026-05-06 19:34 49.88321 8.25570 10838 ft 314 kts 113°
2026-05-06 19:35 49.88021 8.28917 10852 ft 317 kts 82°
2026-05-06 19:35 49.88634 8.32206 10848 ft 317 kts 70°
2026-05-06 19:35 49.89404 8.35420 10853 ft 318 kts 69°
2026-05-06 19:35 49.90205 8.38616 10675 ft 317 kts 69°
2026-05-06 19:36 49.90995 8.41754 10291 ft 316 kts 69°
2026-05-06 19:36 49.91789 8.44940 9918 ft 315 kts 69°
2026-05-06 19:36 49.92567 8.48122 9542 ft 313 kts 69°
2026-05-06 19:36 49.93337 8.51300 9141 ft 312 kts 69°
2026-05-06 19:37 49.94085 8.54406 8737 ft 310 kts 70°
2026-05-06 19:37 49.94837 8.57540 8345 ft 308 kts 70°
2026-05-06 19:37 49.95581 8.60653 7959 ft 307 kts 70°
2026-05-06 19:37 49.96318 8.63734 7855 ft 306 kts 70°
2026-05-06 19:38 49.97064 8.66857 7864 ft 307 kts 70°
2026-05-06 19:38 49.97806 8.69976 7866 ft 307 kts 70°
2026-05-06 19:38 49.98535 8.73041 7860 ft 301 kts 70°
2026-05-06 19:38 49.99239 8.76017 7860 ft 284 kts 70°
2026-05-06 19:39 49.99901 8.78822 7856 ft 268 kts 70°
2026-05-06 19:39 50.00537 8.81508 7859 ft 263 kts 70°
2026-05-06 19:39 50.01168 8.84179 7853 ft 262 kts 70°
2026-05-06 19:39 50.01784 8.86786 7573 ft 259 kts 70°
2026-05-06 19:40 50.02407 8.89425 7075 ft 258 kts 70°
2026-05-06 19:40 50.03025 8.92050 6595 ft 257 kts 70°
2026-05-06 19:40 50.03641 8.94664 6141 ft 255 kts 70°
2026-05-06 19:40 50.04247 8.97217 5675 ft 253 kts 70°
2026-05-06 19:41 50.04857 8.99789 5206 ft 251 kts 70°
2026-05-06 19:41 50.05452 9.02329 4737 ft 249 kts 70°
2026-05-06 19:41 50.06044 9.04864 4279 ft 247 kts 70°
2026-05-06 19:41 50.06628 9.07363 4009 ft 243 kts 69°
2026-05-06 19:42 50.07192 9.09776 4000 ft 242 kts 69°
2026-05-06 19:42 50.07767 9.12250 3999 ft 241 kts 69°
2026-05-06 19:42 50.08344 9.14730 4006 ft 243 kts 69°
2026-05-06 19:42 50.08914 9.17169 3996 ft 242 kts 69°
2026-05-06 19:43 50.09494 9.19653 3991 ft 243 kts 70°
2026-05-06 19:43 50.10075 9.22143 3995 ft 243 kts 69°
2026-05-06 19:43 50.10670 9.24613 3995 ft 244 kts 63°
2026-05-06 19:43 50.11746 9.26600 3997 ft 240 kts 30°
2026-05-06 19:44 50.13275 9.27392 3993 ft 234 kts 358°
2026-05-06 19:44 50.14816 9.26798 3993 ft 227 kts 325°
2026-05-06 19:44 50.15864 9.25026 3993 ft 222 kts 293°
2026-05-06 19:44 50.16391 9.22759 3997 ft 222 kts 285°
2026-05-06 19:45 50.16808 9.20469 3992 ft 222 kts 284°
2026-05-06 19:45 50.17217 9.18142 3997 ft 223 kts 284°
2026-05-06 19:45 50.17617 9.15797 3998 ft 223 kts 284°
2026-05-06 19:45 50.18015 9.13454 3997 ft 223 kts 284°
2026-05-06 19:46 50.18414 9.11108 3998 ft 223 kts 283°
2026-05-06 19:46 50.18414 9.08725 3997 ft 222 kts 249°
2026-05-06 19:46 50.17500 9.06838 4004 ft 224 kts 224°
2026-05-06 19:46 50.16554 9.04928 3990 ft 223 kts 251°
2026-05-06 19:47 50.16164 9.02586 4007 ft 223 kts 254°
2026-05-06 19:47 50.15666 9.00273 4008 ft 223 kts 251°
2026-05-06 19:47 50.15136 8.98021 4011 ft 224 kts 250°
2026-05-06 19:47 50.14598 8.95733 4011 ft 224 kts 251°
2026-05-06 19:48 50.14063 8.93453 4017 ft 224 kts 251°
2026-05-06 19:48 50.13528 8.91170 4017 ft 224 kts 251°
2026-05-06 19:48 50.12997 8.88909 4019 ft 224 kts 251°
2026-05-06 19:48 50.12464 8.86643 4014 ft 217 kts 250°
2026-05-06 19:49 50.11960 8.84502 4013 ft 203 kts 250°
2026-05-06 19:49 50.11490 8.82503 4033 ft 188 kts 250°
2026-05-06 19:49 50.11063 8.80694 4027 ft 175 kts 250°
2026-05-06 19:49 50.10647 8.78927 3979 ft 173 kts 251°
2026-05-06 19:50 50.10232 8.77168 3818 ft 171 kts 251°
2026-05-06 19:50 50.09825 8.75447 3607 ft 171 kts 251°
2026-05-06 19:50 50.09414 8.73707 3349 ft 170 kts 252°
2026-05-06 19:50 50.09004 8.71978 3104 ft 170 kts 252°
2026-05-06 19:51 50.08595 8.70249 2856 ft 169 kts 252°
2026-05-06 19:51 50.08187 8.68530 2605 ft 168 kts 252°
2026-05-06 19:51 50.07786 8.66839 2380 ft 168 kts 252°
2026-05-06 19:51 50.07380 8.65129 2129 ft 168 kts 252°
2026-05-06 19:52 50.06984 8.63463 1880 ft 155 kts 252°
2026-05-06 19:52 50.06631 8.61982 1672 ft 143 kts 253°
2026-05-06 19:52 50.06292 8.60555 1471 ft 140 kts 252°
2026-05-06 19:52 50.05957 8.59147 1256 ft 137 kts 252°
2026-05-06 19:53 50.05625 8.57752 1052 ft 137 kts 251°
2026-05-06 19:53 50.05294 8.56361 838 ft 137 kts 251°
2026-05-06 19:53 50.04966 8.54988 648 ft 137 kts 252°
2026-05-06 19:53 50.04635 8.53599 452 ft 137 kts 251°
2026-05-06 19:54 50.04311 8.52237 356 ft 125 kts 250°
2026-05-06 19:54 50.04067 8.51223 345 ft 56 kts 250°
2026-05-06 19:54 50.03959 8.50778 353 ft 34 kts 249°
2026-05-06 19:54 50.03870 8.50457 352 ft 31 kts 237°
2026-05-06 19:55 50.03740 8.50251 345 ft 20 kts 220°
2026-05-06 19:55 50.03646 8.50186 349 ft 11 kts 167°
2026-05-06 19:55 50.03628 8.50281 345 ft 9 kts 82°
2026-05-06 19:55 50.03649 8.50370 351 ft 10 kts 70°
2026-05-06 19:56 50.03691 8.50549 347 ft 21 kts 71°
2026-05-06 19:56 50.03745 8.50768 353 ft 22 kts 69°
2026-05-06 19:56 50.03802 8.51002 353 ft 24 kts 69°
2026-05-06 19:56 50.03861 8.51251 348 ft 25 kts 70°
2026-05-06 19:57 50.03921 8.51520 347 ft 27 kts 70°
2026-05-06 19:57 50.03988 8.51795 350 ft 28 kts 69°
2026-05-06 19:57 50.04059 8.52091 352 ft 30 kts 69°
2026-05-06 19:57 50.04134 8.52400 350 ft 31 kts 70°
2026-05-06 19:58 50.04210 8.52721 345 ft 32 kts 69°
2026-05-06 19:58 50.04293 8.53053 354 ft 33 kts 68°
2026-05-06 19:58 50.04373 8.53390 354 ft 34 kts 69°
2026-05-06 19:58 50.04413 8.53756 353 ft 35 kts 84°
2026-05-06 19:59 50.04433 8.54081 349 ft 27 kts 85°
2026-05-06 19:59 50.04452 8.54378 345 ft 28 kts 85°
2026-05-06 19:59 50.04394 8.54668 350 ft 30 kts 131°
2026-05-06 19:59 50.04214 8.54827 349 ft 31 kts 159°
2026-05-06 20:00 50.04096 8.54895 353 ft 12 kts 160°
2026-05-06 20:00 50.04023 8.54939 350 ft 10 kts 148°
2026-05-06 20:00 50.04027 8.55056 354 ft 17 kts 69°
2026-05-06 20:00 50.04076 8.55258 350 ft 21 kts 70°
2026-05-06 20:01 50.04127 8.55476 353 ft 22 kts 70°
2026-05-06 20:01 50.04183 8.55706 346 ft 21 kts 69°
2026-05-06 20:01 50.04212 8.55826 354 ft 8 kts 69°
2026-05-06 20:01 50.04233 8.55911 350 ft 13 kts 69°
2026-05-06 20:02 50.04264 8.56044 352 ft 12 kts 60°
2026-05-06 20:02 50.04335 8.56063 348 ft 12 kts 339°
2026-05-06 20:02 50.04435 8.56064 351 ft 17 kts 48°
2026-05-06 20:02 50.04479 8.56232 348 ft 17 kts 70°
2026-05-06 20:03 50.04518 8.56395 352 ft 15 kts 68°
2026-05-06 20:03 50.04600 8.56478 352 ft 14 kts 26°
2026-05-06 20:03 50.04692 8.56542 355 ft 15 kts 28°
2026-05-06 20:03 50.04722 8.56590 351 ft 1 kts 49°
2026-05-06 20:04 50.04728 8.56599 351 ft 4 kts 49°
2026-05-06 20:04 50.04753 8.56654 354 ft 7 kts 71°
2026-05-06 20:04 50.04742 8.56717 354 ft 6 kts 113°
2026-05-06 20:04 50.04739 8.56728 353 ft 3 kts 114°
2026-05-06 20:05 50.04737 8.56733 352 ft 1 kts 114°
2026-05-06 20:05 50.04737 8.56735 351 ft 0 kts 114°